Powrót do katalogu

STARLINK-32736

AktywnyŁącznośćVLEO
NORAD 62443·PAYLOAD·🇺🇸 United States

Wystrzelony Dec 29, 2024 z Vandenberg Space Force Base

Loading…

Następne Przeloty (najbliższe 24 godziny)

TLE

ŚwieżeSource: CelesTrak SupGP

Epoka: Sep 14, 2026, 22:47 UTC

1 62443C 24251M   26257.94979167 -.00067959  00000+0 -20074-2 0  2576
2 62443  53.1583 175.5088 0001293  86.1334 321.1378 15.34432161    16

Śledź STARLINK-32736 w czasie rzeczywistym z AllMySat

Download on the App Store